STARLINK-1284, 45390

Orbit data source: Space-Track

STARLINK-1284, 45390 is a payload satellite owned by SpaceX/Seattle (US) in LEO that was launched on Wed, 18 Mar 2020 UTC via an FALCON 9 launch vehicle from the Air Force Eastern Test Range (AFETR). Payloads include a variety of satellites, spacecraft, and rockets equipped with specific instruments for various scientific and technological missions. These include communications satellites like Starlink; space stations such as the ISS; scientific satellites like the Hubble; Earth observation satellites from companies like Planet Labs, Umbra, and HawkEye 360; GPS; miniature CubeSats for education and research; and military/defense satellites.

Loading next visibility...
STARLINK-1284 details
Identifier
45390, 2020-019AG
Orbit
LEO
Last TLE update1 day ago
Origin
Flag of USSpaceX/Seattle (US)
ManufacturerSpaceX/Seattle
MissionOperational Commercial Communications
Bus & MotorSTARLINK, Unknown motor
Mass260 kg wet, ~248 kg dry
Launch date (UTC)
2020-03-18 (5 years ago)
Launch vehicle
FALCON 9
Launch site
Air Force Eastern Test Range (AFETR)
Object type
Payload
Rocket body
Debris
Shape & HBRBox + 1 Pan, 8.86 m
Radar Cross Section13.562 m², Large (>1 m²)

Expand to show TLE details & history

TLE from 1 day ago
0 STARLINK-1284
1 45390U 20019AG  25043.43401986 -.00001988  00000-0 -11464-3 0  9999
2 45390  53.0539  98.5439 0001484  83.6687 276.4471 15.06383461271188
Epoch: 2025-02-12T10:24Z
Definitive object data (Epoch: 2025-02-12T10:24:59.315Z)
Latitude-0.00004°
Longitude159.57218°
Altitude548.026 km
Speed7.589 km/s
True Right ascension06h 34m 10s
True Declination0° 00' 00"
Sunlit
Object was in full shadow at TLE epoch
Visualization TLE readout
Latitude26.9817°
Longitude176.26662°
Altitude547.887 km
Speed7.592 km/s
Apparent Right ascension07h 33m 48s
Apparent Declination-4° 53' 04"
Sunlit
Object is in full shadow
Visualization observer readout
Local Sidereal Time19:24:48
Azimuth356.095° N
Elevation-54.91°
Doppler factor1
Orbital elements
Apogee altitude548.561 km
Perigee altitude546.505 km
Semi-major axis6,925.67 km
Eccentricity0.0001484
Inclination53.0539°
RAAN98.5439°
Arg. of periapsis83.6687°
True anomaly276.4302°
Mean anomaly276.4471°
Eccentric anomaly276.43865°
Mean motion3.76574 °/min
BSTAR-0.00011464
Orbital period95.6 mins
Loading maneuver chart data...
Loading historical data...
Loading historical data...
Loading historical data...
Loading historical data...
Loading historical data...
Loading historical data...
Loading historical data...

STARLINK-1284 Visibility forecast

Observer location: undefined°, undefined

Span
Click to sort rows by Start time (UTC) header in descending order
Start Az.
Max El. time (UTC)
Max El. Az.
Max El.
End time (UTC)
End Az.
7 mins2025-02-14 05:34:22.834Z213.643° SW2025-02-14 05:38:22.834Z102.433° ESE38.817°2025-02-14 05:41:22.834Z58.513° ENE
5 mins2025-02-14 07:15:22.834Z287.833° WNW2025-02-14 07:17:22.834Z327.311° NNW23.835°2025-02-14 07:20:22.834Z25.775° NE
7 mins2025-02-14 12:16:22.834Z319.447° NNW2025-02-14 12:19:22.834Z35.336° NE40.64°2025-02-14 12:23:22.834Z116.794° SE
4 mins2025-02-14 13:57:22.834Z255.127° W2025-02-14 13:58:22.834Z236.274° WSW18.089°2025-02-14 14:01:22.834Z187.669° SSW
|